When you browse on this site, cookies collect data to enhance your experience and personalize the content and advertising you see.
Visit our Privacy Policy to learn more. By continuing to use the site, you agree to this use of cookies and data.
  • In Austria
  • List of Countries
  • For 7 days
  • Water Temperature
  • Satellite Maps
  • Weather Map
  • News
  • Weather Widgets
  • user-avatar
    Login

    Hourly Weather Canillo

    Today, 18 January, Friday

    Time Temperature Precipitation Wind Pressure Humidity
    00:00 -7°C° 0 mm 2 mps 614 mmHg 90%
    01:00 -7°C° 0 mm 2 mps 613 mmHg 90%
    02:00 -7°C° 0 mm 2 mps 613 mmHg 90%
    03:00 -8°C° 0 mm 2 mps 613 mmHg 90%
    04:00 -8°C° 0 mm 2 mps 613 mmHg 89%
    05:00 -8°C° 0 mm 2 mps 612 mmHg 87%
    06:00 -9°C° 0 mm 2 mps 612 mmHg 86%
    07:00 -6°C° 0 mm 1 mps 613 mmHg 80%
    08:00 -4°C° 0 mm 1 mps 613 mmHg 75%
    09:00 -3°C° 0 mm 1 mps 613 mmHg 70%
    10:00 -2°C° 0 mm 1 mps 614 mmHg 64%
    11:00 -1°C° 0 mm 1 mps 614 mmHg 59%
    12:00 0°C° 0 mm 1 mps 615 mmHg 54%
    13:00 0°C° 0 mm 1 mps 614 mmHg 56%
    14:00 0°C° 0 mm 1 mps 614 mmHg 58%
    15:00 -1°C° 0 mm 1 mps 613 mmHg 60%
    16:00 -1°C° 0 mm 1 mps 613 mmHg 67%
    17:00 -2°C° 0 mm 1 mps 613 mmHg 73%
    18:00 -3°C° 0 mm 1 mps 612 mmHg 79%
    19:00 -4°C° 0 mm 0 mps 612 mmHg 78%
    20:00 -5°C° 0 mm 0 mps 612 mmHg 78%
    21:00 -5°C° 0 mm 0 mps 612 mmHg 77%
    22:00 -5°C° 0 mm 0 mps 612 mmHg 78%
    23:00 -6°C° 0 mm 1 mps 612 mmHg 79%

    Tomorrow, 19 January, Saturday

    Time Temperature Precipitation Wind Pressure Humidity
    00:00 -6°C° 0 mm 1 mps 612 mmHg 80%
    01:00 -6°C° 0 mm 1 mps 612 mmHg 79%
    02:00 -6°C° 0 mm 1 mps 611 mmHg 79%
    03:00 -6°C° 0 mm 1 mps 611 mmHg 78%
    04:00 -6°C° 0 mm 1 mps 611 mmHg 78%
    05:00 -6°C° 0 mm 1 mps 611 mmHg 77%
    06:00 -6°C° 0 mm 1 mps 611 mmHg 77%
    07:00 -4°C° 0 mm 1 mps 612 mmHg 73%
    08:00 -2°C° 0 mm 1 mps 612 mmHg 70%
    09:00 -1°C° 0 mm 1 mps 613 mmHg 66%
    10:00 0°C° 0 mm 1 mps 613 mmHg 62%
    11:00 +2°C° 0 mm 1 mps 613 mmHg 58%
    12:00 +2°C° 0 mm 2 mps 614 mmHg 55%
    13:00 +1°C° 0 mm 2 mps 613 mmHg 56%
    14:00 +1°C° 0 mm 2 mps 612 mmHg 58%
    15:00 +1°C° 0 mm 2 mps 611 mmHg 60%
    16:00 -2°C° 0 mm 2 mps 611 mmHg 66%
    17:00 -3°C° 0 mm 2 mps 610 mmHg 72%
    18:00 -4°C° 0 mm 2 mps 609 mmHg 79%
    19:00 -4°C° 0.2 mm 2 mps 609 mmHg 82%
    20:00 -4°C° 0.2 mm 2 mps 609 mmHg 85%
    21:00 -4°C° 0.2 mm 2 mps 609 mmHg 88%
    22:00 -4°C° 0.2 mm 2 mps 609 mmHg 89%
    23:00 -4°C° 0.2 mm 2 mps 608 mmHg 90%

    Day after tomorrow, 20 January, Sunday

    Time Temperature Precipitation Wind Pressure Humidity
    00:00 -2°C° 0.2 mm 1 mps 608 mmHg 91%
    01:00 -2°C° 0 mm 1 mps 608 mmHg 90%
    02:00 -2°C° 0 mm 1 mps 608 mmHg 89%
    03:00 -2°C° 0 mm 1 mps 608 mmHg 88%
    04:00 -2°C° 0.1 mm 1 mps 608 mmHg 89%
    05:00 -4°C° 0.1 mm 2 mps 609 mmHg 89%
    06:00 -4°C° 0.1 mm 2 mps 609 mmHg 89%
    07:00 -4°C° 0.1 mm 2 mps 609 mmHg 87%
    08:00 -3°C° 0.1 mm 2 mps 610 mmHg 86%
    09:00 -4°C° 0.1 mm 3 mps 611 mmHg 85%
    10:00 -2°C° 0.1 mm 3 mps 611 mmHg 81%
    11:00 -2°C° 0.1 mm 3 mps 611 mmHg 78%
    12:00 -2°C° 0.1 mm 4 mps 612 mmHg 74%
    13:00 -2°C° 0 mm 3 mps 612 mmHg 73%
    14:00 -2°C° 0 mm 3 mps 612 mmHg 72%
    15:00 -2°C° 0 mm 3 mps 611 mmHg 70%
    16:00 -4°C° 0 mm 3 mps 611 mmHg 76%
    17:00 -5°C° 0 mm 3 mps 611 mmHg 82%
    18:00 -6°C° 0 mm 2 mps 611 mmHg 88%
    19:00 -6°C° 0 mm 2 mps 611 mmHg 88%
    20:00 -6°C° 0 mm 2 mps 612 mmHg 88%
    21:00 -7°C° 0 mm 2 mps 612 mmHg 87%
    22:00 -6°C° 0 mm 2 mps 612 mmHg 87%
    23:00 -6°C° 0 mm 2 mps 612 mmHg 87%

    21 January, Monday

    Time Temperature Precipitation Wind Pressure Humidity
    00:00 -6°C° 0 mm 2 mps 612 mmHg 87%
    01:00 -5°C° 0.2 mm 2 mps 613 mmHg 88%
    02:00 -5°C° 0.2 mm 2 mps 613 mmHg 88%
    03:00 -4°C° 0.2 mm 2 mps 613 mmHg 89%
    04:00 -5°C° 0.2 mm 2 mps 613 mmHg 89%
    05:00 -5°C° 0.2 mm 2 mps 613 mmHg 89%
    06:00 -5°C° 0.2 mm 2 mps 613 mmHg 90%
    07:00 -6°C° 0.2 mm 3 mps 614 mmHg 87%
    08:00 -6°C° 0.2 mm 3 mps 614 mmHg 84%
    09:00 -6°C° 0.2 mm 3 mps 615 mmHg 81%
    10:00 -5°C° 0.1 mm 3 mps 615 mmHg 78%
    11:00 -5°C° 0.1 mm 3 mps 615 mmHg 75%
    12:00 -4°C° 0.1 mm 4 mps 615 mmHg 72%
    13:00 -4°C° 0.1 mm 4 mps 615 mmHg 73%
    14:00 -5°C° 0.1 mm 4 mps 615 mmHg 74%
    15:00 -5°C° 0.1 mm 4 mps 615 mmHg 75%
    16:00 -6°C° 0.1 mm 3 mps 614 mmHg 79%
    17:00 -7°C° 0.1 mm 3 mps 614 mmHg 84%
    18:00 -8°C° 0.1 mm 3 mps 614 mmHg 88%
    19:00 -9°C° 0 mm 3 mps 614 mmHg 88%
    20:00 -9°C° 0 mm 3 mps 614 mmHg 89%
    21:00 -10°C° 0 mm 3 mps 614 mmHg 89%
    22:00 -10°C° 0 mm 3 mps 614 mmHg 84%
    23:00 -12°C° 0 mm 3 mps 614 mmHg 80%

    22 January, Tuesday

    Time Temperature Precipitation Wind Pressure Humidity
    00:00 -12°C° 0 mm 2 mps 613 mmHg 75%
    01:00 -12°C° 0 mm 2 mps 613 mmHg 70%
    02:00 -12°C° 0 mm 2 mps 612 mmHg 65%
    03:00 -12°C° 0 mm 2 mps 612 mmHg 60%
    04:00 -12°C° 0 mm 2 mps 611 mmHg 62%
    05:00 -10°C° 0 mm 2 mps 611 mmHg 63%
    06:00 -10°C° 0 mm 2 mps 611 mmHg 65%
    07:00 -8°C° 0 mm 2 mps 611 mmHg 68%
    08:00 -6°C° 0 mm 2 mps 611 mmHg 72%
    09:00 -3°C° 0 mm 1 mps 611 mmHg 75%
    10:00 -4°C° 0.3 mm 2 mps 611 mmHg 75%
    11:00 -3°C° 0.3 mm 2 mps 610 mmHg 75%
    12:00 -2°C° 0.3 mm 2 mps 610 mmHg 74%
    13:00 -3°C° 1 mm 2 mps 609 mmHg 79%
    14:00 -3°C° 1 mm 2 mps 608 mmHg 84%
    15:00 -4°C° 1 mm 2 mps 607 mmHg 88%
    16:00 -6°C° 1 mm 3 mps 606 mmHg 89%
    17:00 -6°C° 1 mm 3 mps 606 mmHg 91%
    18:00 -7°C° 1 mm 3 mps 606 mmHg 92%
    19:00 -8°C° 0.5 mm 3 mps 606 mmHg 91%
    20:00 -8°C° 0.5 mm 3 mps 605 mmHg 91%
    21:00 -7°C° 0.5 mm 2 mps 605 mmHg 90%
    22:00 -8°C° 0.8 mm 2 mps 605 mmHg 91%
    23:00 -8°C° 0.8 mm 2 mps 604 mmHg 92%

    23 January, Wednesday

    Time Temperature Precipitation Wind Pressure Humidity
    00:00 -8°C° 0.8 mm 2 mps 603 mmHg 92%
    01:00 -8°C° 1.1 mm 2 mps 602 mmHg 94%
    02:00 -7°C° 1.1 mm 1 mps 602 mmHg 95%
    03:00 -7°C° 1.1 mm 1 mps 601 mmHg 96%
    04:00 -7°C° 1.9 mm 1 mps 600 mmHg 96%
    05:00 -8°C° 1.9 mm 2 mps 600 mmHg 96%
    06:00 -7°C° 1.9 mm 2 mps 600 mmHg 96%
    07:00 -7°C° 1.7 mm 2 mps 599 mmHg 95%
    08:00 -6°C° 1.7 mm 1 mps 599 mmHg 95%
    09:00 -6°C° 1.7 mm 1 mps 599 mmHg 95%
    10:00 -7°C° 1.6 mm 2 mps 598 mmHg 93%
    11:00 -8°C° 1.6 mm 2 mps 598 mmHg 92%
    12:00 -9°C° 1.6 mm 3 mps 598 mmHg 91%
    13:00 -9°C° 1 mm 3 mps 598 mmHg 91%
    14:00 -10°C° 1 mm 4 mps 598 mmHg 91%
    15:00 -10°C° 1 mm 5 mps 597 mmHg 92%
    16:00 -11°C° 0.8 mm 5 mps 598 mmHg 92%
    17:00 -12°C° 0.8 mm 5 mps 598 mmHg 92%
    18:00 -11°C° 0.8 mm 4 mps 598 mmHg 92%
    19:00 -11°C° 0.8 mm 4 mps 598 mmHg 93%
    20:00 -11°C° 0.8 mm 4 mps 598 mmHg 94%
    21:00 -12°C° 0.8 mm 3 mps 598 mmHg 94%
    22:00 -11°C° 1.2 mm 4 mps 598 mmHg 94%
    23:00 -11°C° 1.2 mm 4 mps 598 mmHg 94%
    Show more